Total_Precipitation_Accumulation
0.09 0.08 0.07 0.07 0.05 0.05 0.05 0.06 0.05 0.05 0.04 0.04 0.04 0.03 0.04 0.06 0.05 0.04 0.05 0.05 0.03 0.03 0.03 0.01 0.03 0.03 0.01 0.01 0.01 0.00 0.00 0.01 0.00 0.00 0.00 0.00 0.00 0.00 0.00 0.00 0.00 0.00 0.00 0.00 0.00 0.00 0.00 0.00 0.00 0.00 0.00 0.00 0.00 0.00 0.00 0.00 0.00 0.00 0.00 0.00 0.00 0.00 0.00 0.00 0.00 0.00 0.00 0.00 0.00 0.00 0.00 0.00 0.00 0.00 0.00 0.00 0.00 0.00 0.00 0.02 0.03 0.02 0.04 0.18 0.11 0.15 0.07 0.10
0.08 0.06 0.06 0.06 0.06 0.05 0.05 0.06 0.06 0.05 0.05 0.04 0.04 0.04 0.03 0.03 0.05 0.04 0.05 0.04 0.05 0.02 0.02 0.04 0.02 0.01 0.02 0.00 0.01 0.00 0.00 0.00 0.00 0.00 0.00 0.00 0.00 0.00 0.00 0.00 0.00 0.00 0.00 0.00 0.00 0.00 0.00 0.00 0.00 0.00 0.00 0.00 0.00 0.00 0.00 0.00 0.00 0.00 0.00 0.00 0.00 0.00 0.00 0.00 0.00 0.00 0.00 0.00 0.00 0.00 0.00 0.00 0.00 0.00 0.00 0.04 0.01 0.00 0.00 0.02 0.04 0.11 0.10 0.14 0.16 0.13 0.13 0.13
0.07 0.06 0.06 0.05 0.06 0.06 0.05 0.05 0.06 0.05 0.04 0.04 0.05 0.06 0.04 0.03 0.04 0.05 0.04 0.05 0.06 0.04 0.03 0.02 0.02 0.01 0.00 0.01 0.00 0.00 0.00 0.00 0.00 0.00 0.00 0.00 0.00 0.00 0.00 0.00 0.00 0.00 0.00 0.00 0.00 0.00 0.00 0.00 0.00 0.00 0.00 0.00 0.00 0.00 0.00 0.00 0.00 0.00 0.00 0.00 0.00 0.00 0.00 0.00 0.00 0.00 0.00 0.00 0.00 0.00 0.00 0.00 0.00 0.00 0.00 0.00 0.00 0.00 0.01 0.03 0.09 0.09 0.29 0.19 0.23 0.20 0.18 0.27
0.07 0.05 0.05 0.06 0.04 0.05 0.06 0.05 0.05 0.05 0.05 0.05 0.04 0.04 0.04 0.05 0.05 0.04 0.06 0.04 0.03 0.04 0.03 0.03 0.01 0.01 0.01 0.00 0.02 0.00 0.00 0.00 0.00 0.00 0.00 0.00 0.00 0.00 0.00 0.00 0.00 0.00 0.00 0.00 0.00 0.00 0.00 0.00 0.00 0.00 0.00 0.00 0.00 0.00 0.00 0.00 0.00 0.00 0.00 0.00 0.00 0.00 0.00 0.00 0.00 0.00 0.00 0.00 0.00 0.00 0.00 0.00 0.00 0.00 0.00 0.00 0.01 0.02 0.07 0.05 0.03 0.13 0.28 0.27 0.22 0.16 0.22 0.31
0.06 0.06 0.06 0.07 0.06 0.06 0.06 0.05 0.07 0.06 0.05 0.05 0.05 0.05 0.06 0.05 0.05 0.08 0.05 0.05 0.03 0.03 0.03 0.02 0.01 0.01 0.01 0.02 0.00 0.00 0.00 0.00 0.00 0.00 0.00 0.00 0.00 0.00 0.00 0.00 0.00 0.00 0.00 0.00 0.00 0.00 0.00 0.00 0.00 0.00 0.00 0.00 0.00 0.00 0.00 0.00 0.00 0.00 0.00 0.00 0.00 0.00 0.00 0.00 0.00 0.00 0.00 0.00 0.00 0.00 0.00 0.00 0.00 0.00 0.00 0.00 0.00 0.07 0.06 0.03 0.05 0.09 0.35 0.20 0.23 0.11 0.24 0.36
0.05 0.05 0.05 0.05 0.06 0.06 0.06 0.05 0.05 0.06 0.06 0.05 0.06 0.06 0.06 0.06 0.06 0.06 0.05 0.05 0.04 0.02 0.02 0.02 0.01 0.01 0.01 0.01 0.00 0.00 0.00 0.00 0.00 0.00 0.00 0.00 0.00 0.00 0.00 0.00 0.00 0.00 0.00 0.00 0.00 0.00 0.00 0.00 0.00 0.00 0.00 0.00 0.00 0.00 0.00 0.00 0.00 0.00 0.00 0.00 0.00 0.00 0.00 0.00 0.00 0.00 0.00 0.00 0.00 0.00 0.00 0.00 0.00 0.00 0.00 0.00 0.00 0.01 0.01 0.01 0.04 0.05 0.09 0.15 0.17 0.17 0.20 0.25
0.06 0.05 0.06 0.05 0.06 0.06 0.06 0.06 0.06 0.05 0.04 0.06 0.06 0.06 0.06 0.07 0.07 0.05 0.06 0.05 0.04 0.04 0.02 0.02 0.01 0.01 0.01 0.01 0.00 0.01 0.01 0.00 0.00 0.00 0.00 0.00 0.00 0.00 0.00 0.00 0.00 0.00 0.00 0.00 0.00 0.00 0.00 0.00 0.00 0.00 0.00 0.00 0.00 0.00 0.00 0.00 0.00 0.00 0.00 0.00 0.00 0.00 0.00 0.00 0.00 0.00 0.00 0.00 0.00 0.00 0.00 0.00 0.00 0.00 0.00 0.00 0.00 0.00 0.00 0.01 0.02 0.12 0.10 0.10 0.14 0.17 0.31 0.26
0.06 0.06 0.07 0.07 0.05 0.03 0.05 0.06 0.06 0.06 0.06 0.08 0.06 0.05 0.07 0.07 0.08 0.06 0.04 0.04 0.04 0.03 0.03 0.02 0.01 0.01 0.02 0.02 0.01 0.01 0.02 0.00 0.00 0.00 0.00 0.00 0.00 0.00 0.00 0.00 0.00 0.00 0.00 0.00 0.00 0.00 0.00 0.00 0.00 0.00 0.00 0.00 0.00 0.00 0.00 0.00 0.00 0.00 0.00 0.00 0.00 0.00 0.00 0.00 0.00 0.00 0.00 0.00 0.00 0.00 0.00 0.00 0.00 0.00 0.00 0.00 0.01 0.00 0.00 0.01 0.03 0.06 0.12 0.20 0.12 0.26 0.47 0.49
0.05 0.06 0.06 0.05 0.06 0.07 0.06 0.06 0.06 0.07 0.08 0.08 0.08 0.07 0.07 0.07 0.07 0.05 0.04 0.04 0.03 0.05 0.03 0.03 0.01 0.01 0.02 0.04 0.04 0.06 0.01 0.00 0.00 0.00 0.00 0.00 0.00 0.00 0.00 0.00 0.00 0.00 0.00 0.00 0.00 0.00 0.00 0.00 0.00 0.00 0.00 0.00 0.00 0.00 0.00 0.00 0.00 0.00 0.00 0.00 0.00 0.00 0.00 0.00 0.00 0.00 0.00 0.00 0.00 0.00 0.00 0.00 0.00 0.00 0.00 0.01 0.01 0.02 0.01 0.01 0.06 0.07 0.11 0.15 0.15 0.16 0.31 0.66
0.07 0.05 0.05 0.05 0.06 0.05 0.08 0.06 0.08 0.07 0.07 0.09 0.08 0.09 0.07 0.05 0.04 0.06 0.04 0.04 0.04 0.04 0.03 0.02 0.01 0.03 0.04 0.08 0.04 0.05 0.00 0.00 0.00 0.00 0.00 0.00 0.00 0.00 0.00 0.00 0.00 0.00 0.00 0.00 0.00 0.00 0.00 0.00 0.00 0.00 0.00 0.00 0.00 0.00 0.00 0.00 0.00 0.00 0.00 0.00 0.00 0.00 0.00 0.00 0.00 0.00 0.00 0.00 0.00 0.00 0.00 0.00 0.00 0.00 0.00 0.04 0.03 0.07 0.06 0.03 0.04 0.05 0.06 0.19 0.16 0.25 0.20 0.37
0.06 0.06 0.07 0.06 0.06 0.06 0.06 0.06 0.06 0.05 0.05 0.06 0.06 0.07 0.07 0.05 0.05 0.04 0.05 0.03 0.05 0.02 0.03 0.01 0.03 0.02 0.07 0.11 0.06 0.01 0.00 0.00 0.00 0.00 0.00 0.00 0.00 0.00 0.00 0.00 0.00 0.00 0.00 0.00 0.00 0.00 0.00 0.00 0.00 0.00 0.00 0.00 0.00 0.00 0.00 0.00 0.00 0.00 0.00 0.00 0.00 0.00 0.00 0.00 0.00 0.00 0.00 0.00 0.00 0.00 0.00 0.00 0.00 0.00 0.00 0.01 0.05 0.12 0.08 0.05 0.07 0.08 0.18 0.25 0.16 0.27 0.41 0.44
0.06 0.08 0.04 0.04 0.06 0.06 0.04 0.06 0.06 0.07 0.05 0.09 0.06 0.04 0.04 0.03 0.04 0.04 0.05 0.05 0.03 0.04 0.02 0.02 0.06 0.12 0.06 0.15 0.10 0.00 0.00 0.00 0.00 0.00 0.00 0.00 0.00 0.00 0.00 0.00 0.00 0.00 0.00 0.00 0.00 0.00 0.00 0.00 0.00 0.00 0.00 0.00 0.00 0.00 0.00 0.00 0.00 0.00 0.00 0.00 0.00 0.00 0.00 0.00 0.00 0.00 0.00 0.00 0.00 0.00 0.00 0.00 0.00 0.00 0.00 0.00 0.01 0.17 0.11 0.03 0.05 0.14 0.16 0.35 0.18 0.18 0.27 0.34
0.04 0.06 0.06 0.05 0.05 0.08 0.05 0.05 0.06 0.06 0.06 0.05 0.05 0.04 0.04 0.04 0.04 0.05 0.04 0.04 0.03 0.02 0.02 0.04 0.03 0.10 0.31 0.24 0.01 0.00 0.00 0.00 0.00 0.00 0.00 0.00 0.00 0.00 0.00 0.00 0.00 0.00 0.00 0.00 0.00 0.00 0.00 0.00 0.00 0.00 0.00 0.00 0.00 0.00 0.00 0.00 0.00 0.00 0.00 0.00 0.00 0.00 0.00 0.00 0.00 0.00 0.00 0.00 0.00 0.00 0.00 0.00 0.00 0.00 0.01 0.00 0.02 0.08 0.19 0.12 0.07 0.08 0.15 0.19 0.22 0.13 0.27 0.37
0.06 0.05 0.07 0.07 0.04 0.04 0.06 0.06 0.04 0.06 0.05 0.04 0.04 0.05 0.04 0.03 0.07 0.03 0.06 0.04 0.06 0.06 0.05 0.04 0.12 0.10 0.21 0.07 0.00 0.00 0.00 0.00 0.00 0.00 0.00 0.00 0.00 0.00 0.00 0.00 0.00 0.00 0.00 0.00 0.00 0.00 0.00 0.00 0.00 0.00 0.00 0.00 0.00 0.00 0.00 0.00 0.00 0.00 0.00 0.00 0.00 0.00 0.00 0.00 0.00 0.00 0.00 0.00 0.00 0.00 0.00 0.00 0.00 0.00 0.01 0.01 0.01 0.01 0.02 0.07 0.07 0.13 0.12 0.17 0.19 0.17 0.29 0.52
0.06 0.09 0.06 0.07 0.07 0.06 0.06 0.06 0.09 0.08 0.06 0.05 0.04 0.03 0.02 0.02 0.02 0.03 0.05 0.04 0.08 0.03 0.06 0.07 0.06 0.19 0.27 0.01 0.00 0.00 0.00 0.00 0.00 0.00 0.00 0.00 0.00 0.00 0.00 0.00 0.00 0.00 0.00 0.00 0.00 0.00 0.00 0.00 0.00 0.00 0.00 0.00 0.00 0.00 0.00 0.00 0.00 0.00 0.00 0.00 0.00 0.00 0.00 0.00 0.00 0.00 0.00 0.00 0.00 0.00 0.00 0.00 0.00 0.01 0.02 0.01 0.05 0.02 0.02 0.05 0.09 0.22 0.13 0.18 0.21 0.91 0.43 0.35
0.10 0.07 0.11 0.05 0.07 0.07 0.04 0.08 0.04 0.05 0.05 0.09 0.04 0.02 0.03 0.02 0.03 0.02 0.03 0.03 0.02 0.07 0.09 0.11 0.07 0.08 0.08 0.04 0.00 0.00 0.00 0.00 0.00 0.00 0.00 0.00 0.00 0.00 0.00 0.00 0.00 0.00 0.00 0.00 0.00 0.00 0.00 0.00 0.00 0.00 0.00 0.00 0.00 0.00 0.00 0.00 0.00 0.00 0.00 0.00 0.00 0.00 0.00 0.00 0.00 0.00 0.00 0.00 0.00 0.00 0.00 0.00 0.00 0.04 0.09 0.07 0.04 0.02 0.02 0.05 0.05 0.11 0.32 0.44 0.50 1.02 0.60 0.57
0.09 0.06 0.05 0.06 0.05 0.06 0.07 0.06 0.05 0.04 0.07 0.05 0.09 0.01 0.01 0.00 0.01 0.00 0.02 0.03 0.03 0.03 0.10 0.04 0.02 0.09 0.15 0.00 0.00 0.00 0.00 0.00 0.00 0.00 0.00 0.00 0.00 0.00 0.00 0.00 0.00 0.00 0.00 0.00 0.00 0.00 0.00 0.00 0.00 0.00 0.00 0.00 0.00 0.00 0.00 0.00 0.00 0.00 0.00 0.00 0.00 0.00 0.00 0.00 0.00 0.00 0.00 0.00 0.00 0.00 0.00 0.00 0.00 0.01 0.08 0.37 0.17 0.02 0.04 0.12 0.08 0.11 0.39 0.59 1.66 0.96 0.90 1.17
0.09 0.06 0.06 0.06 0.07 0.04 0.04 0.11 0.07 0.05 0.06 0.05 0.05 0.01 0.01 0.00 0.01 0.01 0.01 0.01 0.02 0.01 0.06 0.03 0.07 0.37 0.09 0.00 0.00 0.00 0.00 0.00 0.00 0.00 0.00 0.00 0.00 0.00 0.00 0.00 0.00 0.00 0.00 0.00 0.00 0.00 0.00 0.00 0.00 0.00 0.00 0.00 0.00 0.00 0.00 0.00 0.00 0.00 0.00 0.00 0.00 0.00 0.00 0.00 0.00 0.00 0.00 0.00 0.00 0.00 0.00 0.00 0.00 0.00 0.01 0.01 0.02 0.01 0.02 0.10 0.14 0.23 0.67 1.39 1.24 0.99 1.48 1.13
0.09 0.06 0.06 0.05 0.03 0.05 0.09 0.09 0.06 0.07 0.09 0.05 0.02 0.01 0.00 0.01 0.03 0.02 0.01 0.08 0.08 0.20 0.10 0.07 0.15 0.03 0.02 0.00 0.00 0.00 0.00 0.00 0.00 0.00 0.00 0.00 0.00 0.00 0.00 0.00 0.00 0.00 0.00 0.00 0.00 0.00 0.00 0.00 0.00 0.00 0.00 0.00 0.00 0.00 0.00 0.00 0.00 0.00 0.00 0.00 0.00 0.00 0.00 0.00 0.00 0.00 0.00 0.00 0.00 0.00 0.00 0.00 0.00 0.00 0.00 0.01 0.01 0.01 0.03 0.21 0.67 0.71 0.48 0.66 0.99 1.38 0.96 0.64
0.09 0.07 0.05 0.04 0.05 0.04 0.05 0.05 0.04 0.08 0.14 0.06 0.03 0.02 0.04 0.07 0.19 0.11 0.02 0.05 0.03 0.01 0.00 0.00 0.00 0.00 0.00 0.00 0.00 0.00 0.00 0.00 0.00 0.00 0.00 0.00 0.00 0.00 0.00 0.00 0.00 0.00 0.00 0.00 0.00 0.00 0.00 0.00 0.00 0.00 0.00 0.00 0.00 0.00 0.00 0.00 0.00 0.00 0.00 0.00 0.00 0.00 0.00 0.00 0.00 0.00 0.00 0.00 0.00 0.00 0.00 0.00 0.00 0.00 0.00 0.01 0.05 0.07 0.12 0.40 0.22 0.25 0.50 1.37 1.74 0.75 0.98 1.12
0.08 0.07 0.08 0.06 0.05 0.04 0.04 0.07 0.07 0.05 0.15 0.11 0.08 0.04 0.03 0.03 0.07 0.12 0.27 0.06 0.03 0.01 0.00 0.00 0.00 0.00 0.00 0.00 0.00 0.00 0.00 0.00 0.00 0.00 0.00 0.00 0.00 0.00 0.01 0.00 0.00 0.00 0.00 0.00 0.00 0.00 0.00 0.00 0.00 0.00 0.00 0.00 0.00 0.00 0.00 0.00 0.00 0.00 0.00 0.00 0.00 0.00 0.00 0.00 0.00 0.00 0.00 0.00 0.00 0.00 0.00 0.00 0.00 0.00 0.00 0.01 0.04 0.07 0.05 0.14 0.14 0.39 0.62 1.29 0.75 0.70 0.52 0.58
0.11 0.09 0.06 0.09 0.03 0.06 0.07 0.11 0.06 0.18 0.05 0.09 0.10 0.05 0.02 0.05 0.06 0.07 0.22 0.15 0.02 0.01 0.00 0.00 0.00 0.00 0.00 0.00 0.00 0.00 0.00 0.00 0.00 0.00 0.00 0.00 0.00 0.01 0.01 0.00 0.00 0.00 0.00 0.00 0.00 0.00 0.00 0.00 0.00 0.00 0.00 0.00 0.00 0.00 0.00 0.00 0.00 0.00 0.00 0.00 0.00 0.00 0.00 0.00 0.00 0.00 0.00 0.00 0.00 0.00 0.00 0.00 0.00 0.00 0.00 0.02 0.02 0.04 0.03 0.08 0.29 0.61 1.32 0.85 0.47 0.34 0.56 0.51
0.11 0.07 0.07 0.05 0.06 0.03 0.05 0.05 0.04 0.07 0.12 0.11 0.10 0.04 0.07 0.03 0.05 0.15 0.27 0.19 0.12 0.01 0.02 0.01 0.01 0.00 0.00 0.00 0.00 0.00 0.00 0.00 0.00 0.00 0.00 0.00 0.00 0.00 0.00 0.01 0.00 0.00 0.00 0.00 0.00 0.00 0.00 0.00 0.01 0.00 0.00 0.00 0.00 0.00 0.00 0.00 0.00 0.00 0.00 0.00 0.00 0.00 0.00 0.03 0.00 0.00 0.00 0.00 0.00 0.00 0.01 0.01 0.00 0.00 0.00 0.02 0.02 0.03 0.03 0.11 0.42 1.01 0.22 0.48 0.91 0.90 0.46 0.18
0.12 0.12 0.10 0.08 0.08 0.06 0.07 0.09 0.07 0.04 0.04 0.06 0.05 0.09 0.06 0.06 0.14 0.11 0.21 0.25 0.02 0.00 0.00 0.00 0.00 0.00 0.00 0.00 0.00 0.00 0.00 0.00 0.00 0.00 0.00 0.00 0.00 0.00 0.00 0.02 0.01 0.00 0.00 0.00 0.00 0.00 0.00 0.00 0.01 0.01 0.00 0.00 0.00 0.00 0.00 0.00 0.00 0.00 0.00 0.00 0.00 0.00 0.00 0.00 0.07 0.00 0.00 0.00 0.00 0.00 0.00 0.01 0.00 0.00 0.00 0.00 0.02 0.07 0.19 0.43 0.81 0.62 0.82 0.83 0.56 0.44 0.49 0.62
0.06 0.07 0.07 0.07 0.11 0.25 0.12 0.13 0.04 0.07 0.05 0.04 0.13 0.11 0.08 0.09 0.50 0.23 0.25 0.19 0.06 0.01 0.00 0.00 0.00 0.00 0.00 0.00 0.00 0.00 0.00 0.00 0.00 0.00 0.00 0.00 0.00 0.00 0.00 0.00 0.01 0.00 0.00 0.00 0.00 0.00 0.00 0.01 0.00 0.00 0.00 0.00 0.00 0.00 0.00 0.00 0.00 0.00 0.00 0.00 0.00 0.00 0.00 0.00 0.00 0.00 0.00 0.01 0.00 0.00 0.02 0.01 0.01 0.00 0.01 0.00 0.01 0.11 0.27 0.20 0.15 0.34 0.73 0.77 0.80 0.71 0.68 0.67
0.12 0.07 0.12 0.11 0.14 0.38 0.08 0.04 0.11 0.08 0.07 0.17 0.15 0.13 0.17 0.30 0.28 0.31 0.16 0.22 0.10 0.01 0.00 0.00 0.00 0.00 0.00 0.00 0.00 0.00 0.00 0.00 0.00 0.00 0.00 0.00 0.00 0.00 0.00 0.01 0.00 0.00 0.00 0.00 0.00 0.00 0.00 0.00 0.00 0.00 0.00 0.00 0.00 0.00 0.00 0.00 0.00 0.00 0.03 0.00 0.00 0.00 0.00 0.00 0.00 0.00 0.00 0.03 0.05 0.00 0.01 0.03 0.01 0.02 0.00 0.00 0.01 0.06 0.25 0.16 0.16 0.10 0.10 0.29 0.15 0.24 0.24 0.23
0.06 0.18 0.13 0.16 0.22 0.35 0.19 0.29 0.13 0.07 0.17 0.22 0.12 0.15 0.16 0.21 0.14 0.19 0.51 0.12 0.09 0.14 0.02 0.01 0.01 0.13 0.00 0.00 0.00 0.00 0.01 0.02 0.00 0.00 0.00 0.00 0.00 0.00 0.00 0.00 0.00 0.00 0.01 0.00 0.00 0.00 0.00 0.01 0.00 0.00 0.00 0.00 0.00 0.00 0.00 0.00 0.00 0.02 0.01 0.00 0.00 0.00 0.00 0.00 0.00 0.00 0.02 0.00 0.00 0.00 0.00 0.03 0.02 0.07 0.00 0.01 0.01 0.06 0.08 0.08 0.16 0.10 0.24 0.19 0.28 0.29 0.57 0.50
0.09 0.16 0.09 0.10 0.34 0.39 0.51 0.19 0.10 0.13 0.25 0.61 0.57 0.21 0.16 0.09 0.32 0.52 0.30 0.19 0.05 0.14 0.18 0.12 0.09 0.09 0.16 0.03 0.00 0.00 0.00 0.00 0.02 0.00 0.00 0.00 0.00 0.00 0.00 0.01 0.00 0.00 0.00 0.00 0.01 0.00 0.00 0.00 0.00 0.00 0.00 0.00 0.00 0.00 0.00 0.00 0.00 0.02 0.00 0.00 0.00 0.00 0.01 0.00 0.00 0.00 0.05 0.01 0.05 0.00 0.00 0.00 0.05 0.05 0.00 0.00 0.03 0.09 0.10 0.14 0.12 0.15 0.28 0.25 0.26 0.29 0.60 0.59
0.13 0.14 0.13 0.12 0.15 0.22 0.31 0.21 0.14 0.12 0.30 0.15 0.22 0.29 0.14 0.34 0.23 0.79 0.77 0.25 0.60 0.23 0.20 0.17 0.02 0.45 0.22 0.04 0.01 0.00 0.00 0.00 0.03 0.00 0.00 0.00 0.00 0.00 0.00 0.00 0.01 0.00 0.00 0.00 0.00 0.00 0.00 0.00 0.00 0.00 0.00 0.00 0.00 0.00 0.00 0.00 0.01 0.00 0.00 0.00 0.00 0.00 0.00 0.00 0.01 0.00 0.08 0.00 0.02 0.05 0.10 0.03 0.05 0.03 0.04 0.06 0.02 0.10 0.16 0.19 0.14 0.28 0.37 0.34 0.27 0.45 0.47 0.48
0.10 0.10 0.21 0.11 0.16 0.16 0.47 0.58 0.27 0.29 0.15 0.24 0.19 0.17 0.22 0.40 1.32 0.47 0.65 0.19 0.30 0.65 0.13 0.28 0.16 0.34 0.07 0.09 0.07 0.01 0.02 0.01 0.00 0.00 0.00 0.00 0.00 0.00 0.00 0.00 0.03 0.01 0.02 0.00 0.00 0.01 0.00 0.00 0.00 0.00 0.00 0.00 0.00 0.00 0.00 0.00 0.00 0.00 0.00 0.00 0.00 0.00 0.01 0.00 0.00 0.06 0.04 0.00 0.02 0.02 0.02 0.00 0.09 0.14 0.17 0.11 0.06 0.05 0.12 0.23 0.33 0.32 0.41 0.61 0.26 0.25 0.41 0.48
0.17 0.15 0.14 0.27 0.32 0.25 0.17 0.17 0.21 0.32 0.29 0.27 0.15 0.20 0.32 0.90 0.85 0.54 0.25 0.34 0.53 0.57 0.23 0.32 0.33 0.15 0.23 0.19 0.10 0.07 0.02 0.01 0.01 0.00 0.00 0.00 0.01 0.00 0.00 0.00 0.02 0.05 0.04 0.01 0.01 0.00 0.00 0.00 0.00 0.00 0.00 0.00 0.00 0.00 0.00 0.00 0.00 0.00 0.00 0.02 0.00 0.02 0.00 0.00 0.04 0.03 0.08 0.00 0.03 0.02 0.01 0.02 0.07 0.19 0.17 0.11 0.09 0.11 0.08 0.14 0.21 0.42 0.24 0.25 0.30 0.26 0.27 0.47
0.10 0.22 0.20 0.33 0.24 0.22 0.21 0.45 0.41 0.24 0.22 0.28 0.21 0.24 0.55 0.74 0.62 0.65 0.22 0.15 0.57 0.98 0.77 0.42 0.37 0.25 0.22 0.16 0.17 0.08 0.03 0.04 0.01 0.01 0.00 0.00 0.02 0.00 0.00 0.01 0.00 0.03 0.02 0.04 0.04 0.00 0.01 0.01 0.00 0.00 0.00 0.00 0.00 0.00 0.00 0.00 0.00 0.00 0.00 0.01 0.19 0.16 0.03 0.04 0.05 0.02 0.01 0.04 0.04 0.00 0.00 0.07 0.01 0.31 0.15 0.16 0.14 0.34 0.13 0.12 0.15 0.16 0.15 0.18 0.29 0.21 0.30 0.50
0.07 0.13 0.20 0.13 0.27 0.15 0.06 0.19 0.08 0.25 0.19 0.54 0.20 0.61 0.85 0.95 0.53 0.21 0.24 0.31 1.28 1.30 0.63 0.39 0.45 0.36 0.32 0.18 0.06 0.01 0.16 0.10 0.02 0.00 0.00 0.00 0.01 0.00 0.01 0.01 0.00 0.05 0.03 0.06 0.02 0.00 0.01 0.01 0.00 0.00 0.00 0.00 0.00 0.00 0.02 0.00 0.00 0.00 0.01 0.13 0.04 0.11 0.06 0.02 0.07 0.01 0.05 0.03 0.01 0.04 0.01 0.04 0.24 0.23 0.23 0.48 0.27 0.25 0.12 0.10 0.13 0.13 0.21 0.21 0.32 0.33 0.48 0.46
0.07 0.09 0.19 0.25 0.18 0.10 0.25 0.10 0.12 0.11 0.22 0.37 0.45 0.71 1.72 0.64 0.35 0.67 0.45 0.56 0.93 0.63 0.55 0.40 0.46 0.21 0.08 0.23 0.09 0.02 0.06 0.03 0.02 0.01 0.00 0.02 0.02 0.03 0.03 0.00 0.01 0.09 0.00 0.05 0.02 0.02 0.05 0.07 0.00 0.00 0.00 0.00 0.00 0.00 0.00 0.03 0.01 0.01 0.00 0.01 0.09 0.13 0.07 0.02 0.06 0.05 0.02 0.18 0.09 0.02 0.01 0.08 0.07 1.01 0.27 0.37 0.36 0.35 0.33 0.35 0.43 0.43 0.19 0.20 0.26 0.35 0.44 1.23
0.10 0.13 0.08 0.09 0.11 0.09 0.18 0.20 0.07 0.11 0.29 0.31 0.54 0.79 0.72 0.38 0.41 0.43 0.82 0.53 0.59 0.68 0.71 0.34 0.37 0.26 0.23 0.06 0.11 0.02 0.07 0.15 0.01 0.04 0.02 0.01 0.03 0.03 0.02 0.03 0.00 0.00 0.06 0.01 0.07 0.01 0.01 0.03 0.06 0.00 0.00 0.00 0.00 0.00 0.00 0.00 0.00 0.01 0.00 0.00 0.05 0.05 0.00 0.09 0.30 0.06 0.16 0.08 0.04 0.05 0.08 0.48 0.68 0.80 0.51 0.21 0.20 1.13 1.51 1.24 1.27 0.82 0.82 0.34 0.34 0.42 1.10 1.02
0.05 0.45 0.22 0.24 0.10 0.15 0.16 0.05 0.07 0.25 0.26 0.57 0.71 0.77 0.62 0.56 0.70 0.67 1.17 0.46 0.70 0.96 0.71 0.46 0.26 0.43 0.27 0.36 0.07 0.10 0.01 0.25 0.06 0.07 0.07 0.01 0.02 0.03 0.01 0.02 0.02 0.00 0.06 0.00 0.13 0.04 0.01 0.12 0.00 0.01 0.00 0.00 0.00 0.00 0.00 0.00 0.22 0.32 0.00 0.01 0.03 0.02 0.01 0.02 0.00 0.01 0.00 0.00 0.03 0.01 0.13 0.25 0.20 0.77 0.43 0.77 0.43 0.48 1.05 1.53 1.68 1.89 1.91 1.62 1.65 1.74 1.63 0.96
0.38 0.12 0.26 0.27 0.08 0.06 0.03 0.05 0.07 0.52 0.18 0.45 0.80 0.63 0.26 0.49 0.35 0.43 0.74 0.54 0.65 0.84 1.22 1.02 0.68 0.56 0.50 0.30 0.22 0.07 0.38 0.06 0.19 0.06 0.28 0.04 0.08 0.01 0.03 0.02 0.01 0.01 0.01 0.02 0.11 0.01 0.10 0.22 0.01 0.00 0.00 0.00 0.00 0.00 0.00 0.00 0.00 0.06 0.03 0.03 0.00 0.00 0.02 0.02 0.16 0.08 0.01 0.04 0.06 0.02 0.05 0.30 0.06 0.63 0.50 0.46 0.74 1.13 0.88 0.79 1.96 1.70 1.72 1.90 1.99 1.31 1.29 1.66
0.22 0.11 0.15 0.20 0.12 0.05 0.04 0.03 0.06 0.26 0.23 0.52 0.65 0.45 0.29 0.49 0.28 0.31 0.44 0.61 0.62 0.63 1.06 0.99 1.21 0.60 0.52 0.27 0.17 0.16 0.47 0.16 0.42 0.09 0.19 0.03 0.27 0.00 0.03 0.03 0.01 0.00 0.00 0.00 0.03 0.05 0.01 0.09 0.04 0.00 0.00 0.00 0.00 0.00 0.00 0.00 0.00 0.00 0.07 0.01 0.01 0.09 0.07 0.04 0.00 0.02 0.03 0.02 0.09 0.02 0.10 0.10 0.13 0.52 0.27 0.50 0.44 0.62 0.53 0.63 0.45 0.98 1.49 2.13 2.30 2.39 2.08 1.38
0.39 0.35 0.36 0.22 0.15 0.05 0.04 0.06 0.07 0.23 0.49 0.54 0.51 0.79 0.39 0.46 0.23 0.45 0.49 0.66 0.68 0.69 0.71 0.84 1.21 0.71 0.77 0.39 0.21 0.11 0.25 0.26 0.09 0.27 0.31 0.20 0.27 0.15 0.10 0.01 0.07 0.00 0.01 0.02 0.01 0.02 0.00 0.02 0.05 0.00 0.00 0.01 0.00 0.00 0.00 0.01 0.00 0.00 0.00 0.00 0.00 0.00 0.04 0.06 0.03 0.10 0.01 0.25 0.02 0.15 0.07 0.13 0.19 0.34 0.14 0.30 0.62 0.81 0.35 0.31 0.40 0.52 0.83 0.96 1.26 1.26 1.06 0.66
0.33 0.71 0.44 0.21 0.11 0.04 0.03 0.04 0.14 0.27 0.47 0.49 0.32 0.46 0.32 0.49 0.36 0.28 0.43 0.63 0.71 0.46 0.54 0.61 0.59 0.85 0.49 0.35 0.31 0.29 0.08 0.26 0.17 0.38 0.12 0.56 0.07 0.02 0.10 0.00 0.04 0.00 0.00 0.00 0.01 0.00 0.05 0.03 0.10 0.05 0.00 0.00 0.06 0.01 0.01 0.01 0.06 0.01 0.00 0.00 0.01 0.01 0.05 0.01 0.14 0.02 0.12 0.16 0.07 0.12 0.17 0.46 0.56 0.14 0.19 0.18 0.34 0.82 0.84 0.47 0.54 0.50 0.44 0.71 0.88 1.30 0.94 0.78
0.22 0.63 0.46 0.56 0.29 0.03 0.04 0.15 0.26 0.36 0.35 0.26 0.37 0.41 0.39 0.64 0.47 0.40 0.35 0.38 0.66 0.31 0.44 0.57 0.52 0.81 0.74 0.65 0.31 0.21 0.20 0.26 0.12 0.23 0.10 0.16 0.09 0.18 0.00 0.04 0.01 0.06 0.00 0.03 0.00 0.03 0.01 0.00 0.01 0.05 0.01 0.01 0.05 0.01 0.00 0.00 0.00 0.01 0.01 0.06 0.02 0.10 0.09 0.07 0.09 0.01 0.05 0.06 0.12 0.03 0.16 0.47 0.44 0.09 0.28 0.26 0.27 0.21 0.50 0.74 0.60 1.05 0.88 1.57 1.35 1.25 1.53 2.64
0.85 0.57 1.04 0.61 0.20 0.19 0.16 0.47 0.20 0.18 0.36 0.27 0.37 0.42 0.58 0.51 0.71 0.49 0.39 0.26 0.40 0.44 0.38 0.51 0.32 0.87 0.59 0.45 0.39 0.24 0.11 0.08 0.08 0.12 0.13 0.32 0.40 0.19 0.21 0.00 0.01 0.02 0.05 0.04 0.01 0.04 0.07 0.03 0.07 0.02 0.07 0.12 0.02 0.01 0.00 0.00 0.00 0.00 0.00 0.01 0.00 0.05 0.03 0.08 0.11 0.19 0.05 0.04 0.04 0.24 0.09 0.61 0.32 0.21 0.35 0.32 0.21 0.29 0.23 0.25 0.70 0.73 0.70 0.66 0.64 1.32 1.34 2.06
0.43 0.55 1.29 0.89 0.29 0.22 0.35 0.32 0.12 0.23 0.28 0.28 0.22 0.35 0.45 0.62 0.61 0.60 0.51 0.32 0.52 0.48 0.53 0.52 0.34 0.69 0.73 0.64 0.52 0.36 0.06 0.13 0.06 0.19 0.11 0.06 0.28 0.10 0.08 0.03 0.01 0.03 0.00 0.14 0.00 0.02 0.00 0.00 0.02 0.04 0.05 0.03 0.01 0.00 0.00 0.00 0.00 0.01 0.00 0.00 0.00 0.08 0.03 0.04 0.13 0.25 0.06 0.11 0.10 0.09 0.09 0.69 0.46 0.35 0.61 0.34 0.20 0.17 0.30 0.62 0.60 0.86 0.84 0.56 0.68 0.79 0.92 1.06
0.68 2.15 1.08 0.91 0.44 0.45 0.42 0.34 0.29 0.16 0.11 0.12 0.18 0.23 0.25 0.57 0.65 0.59 0.53 0.52 0.71 0.54 0.56 0.40 0.23 0.60 0.56 0.47 0.31 0.39 0.10 0.09 0.02 0.20 0.14 0.07 0.39 0.04 0.02 0.03 0.02 0.06 0.06 0.30 0.09 0.04 0.15 0.03 0.02 0.10 0.08 0.17 0.17 0.04 0.00 0.00 0.00 0.00 0.01 0.02 0.00 0.00 0.02 0.08 0.04 0.12 0.02 0.10 0.24 0.17 0.12 0.53 0.86 0.58 0.99 0.80 0.42 0.49 0.52 0.43 0.53 0.23 0.30 0.36 0.40 0.35 0.79 0.79
1.07 1.46 1.36 0.99 0.55 0.49 0.69 0.49 0.36 0.19 0.28 0.20 0.22 0.24 0.41 0.49 0.55 0.52 0.59 0.64 0.69 0.67 0.50 0.29 0.17 0.52 1.05 0.48 0.37 0.17 0.06 0.37 0.15 0.14 0.15 0.31 0.54 0.00 0.01 0.01 0.02 0.17 0.08 0.05 0.00 0.07 0.09 0.20 0.02 0.08 0.23 0.13 0.16 0.23 0.27 0.12 0.06 0.03 0.00 0.00 0.01 0.01 0.19 0.11 0.06 0.08 0.02 0.07 0.03 0.12 0.60 0.43 0.51 0.54 0.54 0.34 0.29 0.29 0.39 0.22 0.15 0.60 1.44 0.76 0.63 0.50 0.40 0.80
1.25 1.64 1.11 1.09 1.29 1.13 0.19 0.35 0.31 0.59 0.32 0.28 0.25 0.27 0.33 0.58 0.43 0.45 0.46 0.65 0.51 0.69 0.53 0.29 0.17 0.13 0.21 0.35 0.38 0.45 0.41 0.04 0.18 0.21 0.26 0.35 0.17 0.05 0.00 0.02 0.15 0.06 0.08 0.03 0.05 0.02 0.26 0.08 0.10 0.07 0.25 0.37 0.49 0.38 0.12 0.05 0.26 0.05 0.05 0.01 0.06 0.00 0.02 0.05 0.09 0.06 0.18 0.16 0.09 0.20 0.22 0.35 0.59 0.63 0.28 0.46 0.50 0.55 0.69 0.31 0.21 0.28 0.44 0.41 0.95 1.45 1.43 0.98
1.03 1.47 1.06 0.89 0.47 0.52 0.67 0.30 0.34 0.25 0.43 0.50 0.61 0.34 0.43 0.42 0.47 0.50 0.40 0.77 0.50 0.59 0.36 0.62 0.36 0.26 0.17 0.16 0.19 0.37 0.15 0.21 0.26 0.28 0.39 0.50 0.35 0.16 0.01 0.05 0.16 0.04 0.01 0.03 0.05 0.23 0.28 0.24 0.09 0.15 0.19 0.10 0.09 0.13 0.21 0.09 0.08 0.05 0.05 0.05 0.02 0.03 0.02 0.10 0.04 0.10 0.32 0.14 0.20 0.46 0.26 0.06 0.36 0.40 0.39 0.50 0.42 0.28 0.66 0.43 0.28 0.25 0.51 0.64 0.51 0.49 0.42 0.84
1.32 1.74 1.31 1.08 0.89 0.50 0.55 0.96 0.28 0.57 0.20 0.30 0.61 0.30 0.39 0.45 0.48 0.87 0.61 0.74 0.91 0.37 0.53 0.33 0.26 0.16 0.16 0.21 0.14 0.28 0.26 0.19 0.37 0.23 0.46 0.28 0.18 0.29 0.43 0.02 0.07 0.06 0.03 0.08 0.14 0.19 0.49 0.37 0.35 0.17 0.29 0.13 0.07 0.08 0.11 0.12 0.10 0.10 0.11 0.11 0.07 0.09 0.08 0.08 0.03 0.03 0.14 0.06 0.15 0.38 0.50 0.13 0.35 0.45 0.34 0.53 0.46 0.64 0.38 0.56 0.48 0.42 0.34 0.61 0.44 0.48 0.46 0.44
1.55 1.53 1.48 0.48 0.80 0.89 0.63 0.45 0.34 0.35 0.62 0.38 0.63 0.31 0.45 0.34 0.56 0.72 1.26 1.05 0.87 0.71 0.43 0.74 0.45 0.20 0.17 0.07 0.19 0.27 0.32 0.30 0.23 0.62 0.48 0.25 0.27 0.26 0.50 0.26 0.16 0.10 0.02 0.09 0.24 0.15 0.17 0.45 0.66 0.44 0.51 0.27 0.15 0.14 0.12 0.26 0.15 0.13 0.20 0.19 0.14 0.18 0.11 0.17 0.12 0.06 0.14 0.17 0.14 0.16 0.21 0.29 0.25 0.45 0.30 0.40 0.32 0.18 0.30 0.40 0.26 0.36 0.55 0.47 0.52 0.50 0.45 0.23
1.60 2.38 1.60 0.75 0.54 0.51 0.44 0.37 0.54 0.47 0.41 0.25 0.45 0.36 0.44 0.39 0.49 0.52 0.85 1.08 0.90 0.54 0.49 0.62 0.69 0.28 0.21 0.15 0.15 0.55 0.49 0.82 0.96 0.55 0.38 0.15 0.20 0.16 0.52 0.46 0.67 0.27 0.10 0.23 0.14 0.37 0.04 0.45 0.16 0.35 0.57 0.78 0.54 0.13 0.14 0.34 0.23 0.13 0.07 0.13 0.17 0.37 0.21 0.06 0.17 0.27 0.20 0.21 0.06 0.04 0.02 0.40 0.47 0.27 0.41 0.33 0.24 0.10 0.11 0.18 0.34 0.59 0.35 0.31 0.42 0.31 0.25 0.28
1.53 1.75 1.77 1.14 0.64 0.70 0.63 0.32 0.41 0.61 0.48 0.34 0.39 0.38 0.29 0.42 0.55 0.68 0.86 0.49 0.96 0.74 0.56 0.60 0.68 0.86 0.31 0.22 0.30 0.45 0.47 0.57 0.68 0.77 0.21 0.50 0.37 0.26 0.35 0.36 0.06 0.20 0.20 0.17 0.15 0.50 0.10 0.64 0.44 0.65 0.25 0.51 0.30 0.24 0.24 0.29 0.42 0.25 0.13 0.10 0.11 0.15 0.25 0.08 0.09 0.18 0.37 0.35 0.25 0.13 0.01 0.16 0.55 0.19 0.24 0.26 0.17 0.14 0.14 0.14 0.13 0.14 0.36 0.27 0.23 0.32 0.22 0.20
1.25 0.88 1.15 1.27 0.60 0.27 0.43 0.21 0.39 0.39 0.80 0.59 0.39 0.28 0.47 0.22 0.29 0.42 0.46 0.21 0.56 0.71 0.60 0.64 0.65 0.83 0.54 0.69 0.55 0.33 0.47 0.53 0.49 0.72 0.25 0.19 0.16 0.62 0.38 0.51 0.52 0.66 0.54 0.34 0.39 0.43 0.41 0.19 0.20 0.44 0.36 0.48 0.65 0.26 0.50 0.35 0.48 0.46 0.68 0.19 0.10 0.11 0.26 0.09 0.08 0.05 0.16 0.68 0.58 0.27 0.08 0.07 0.21 0.19 0.17 0.34 0.43 0.20 0.21 0.15 0.12 0.14 0.12 0.12 0.14 0.15 0.14 0.18